GFSNGP_prec_pwat_087.txt.gz
Precipitable_Water
0.30 0.40 0.41 0.37 0.38 0.38 0.36 0.37 0.31 0.31 0.28 0.30 0.41 0.42 0.52 0.54 0.58 0.63 0.67 0.69 0.71 0.77 0.81 0.84 0.86 0.93 0.99 1.05 1.09 1.13 1.09 1.04 1.02 1.01 1.01 0.98 0.95 0.98 1.00 0.99 1.00 1.02 1.02 1.03
0.32 0.32 0.31 0.28 0.30 0.30 0.28 0.26 0.23 0.24 0.29 0.50 0.59 0.57 0.58 0.53 0.58 0.63 0.67 0.71 0.72 0.77 0.80 0.82 0.83 0.88 0.94 0.97 1.03 1.06 1.05 1.01 1.00 0.99 0.95 0.93 0.91 0.92 0.96 0.95 0.96 0.98 0.96 0.95
0.26 0.30 0.25 0.21 0.25 0.24 0.26 0.30 0.34 0.31 0.42 0.50 0.44 0.50 0.51 0.50 0.56 0.61 0.68 0.71 0.72 0.73 0.78 0.81 0.82 0.86 0.91 0.95 1.00 1.02 1.02 1.00 0.99 0.97 0.94 0.91 0.89 0.88 0.91 0.93 0.96 0.97 0.98 0.97
0.25 0.24 0.17 0.29 0.31 0.28 0.24 0.35 0.35 0.37 0.40 0.44 0.48 0.50 0.53 0.54 0.58 0.63 0.67 0.69 0.70 0.73 0.75 0.80 0.83 0.86 0.90 0.95 0.97 0.99 0.99 0.98 0.97 0.97 0.95 0.94 0.92 0.90 0.95 1.01 1.02 1.04 1.03 1.03
0.23 0.23 0.21 0.26 0.32 0.29 0.27 0.36 0.41 0.36 0.38 0.43 0.46 0.48 0.47 0.53 0.61 0.64 0.66 0.67 0.70 0.73 0.76 0.78 0.80 0.82 0.87 0.91 0.93 0.96 0.96 0.98 1.00 0.99 1.00 0.99 0.97 0.96 0.97 0.98 0.98 0.98 1.00 1.00
0.21 0.17 0.16 0.33 0.35 0.35 0.33 0.25 0.42 0.39 0.35 0.38 0.43 0.34 0.41 0.52 0.61 0.64 0.66 0.67 0.68 0.70 0.73 0.76 0.77 0.77 0.82 0.82 0.86 0.87 0.89 0.90 0.94 0.95 0.95 0.96 0.97 0.94 0.95 0.95 0.94 0.94 0.93 0.94
0.22 0.19 0.23 0.35 0.33 0.33 0.21 0.31 0.45 0.38 0.34 0.34 0.35 0.41 0.50 0.54 0.59 0.63 0.64 0.64 0.66 0.68 0.69 0.71 0.74 0.74 0.74 0.78 0.78 0.82 0.84 0.84 0.87 0.89 0.89 0.92 0.91 0.88 0.87 0.88 0.86 0.83 0.79 0.76
0.22 0.19 0.18 0.37 0.34 0.27 0.36 0.42 0.41 0.40 0.37 0.35 0.40 0.43 0.48 0.52 0.54 0.58 0.60 0.62 0.64 0.64 0.66 0.69 0.71 0.72 0.70 0.69 0.73 0.76 0.78 0.76 0.80 0.83 0.83 0.83 0.83 0.82 0.81 0.79 0.74 0.69 0.65 0.61
0.31 0.29 0.39 0.40 0.39 0.41 0.42 0.41 0.42 0.40 0.41 0.43 0.41 0.44 0.46 0.48 0.51 0.54 0.57 0.59 0.61 0.61 0.62 0.64 0.66 0.67 0.66 0.67 0.70 0.71 0.72 0.72 0.73 0.73 0.72 0.72 0.70 0.67 0.63 0.62 0.58 0.54 0.53 0.50
0.33 0.35 0.36 0.38 0.40 0.40 0.42 0.42 0.44 0.43 0.44 0.47 0.43 0.44 0.46 0.47 0.50 0.53 0.55 0.57 0.59 0.59 0.59 0.58 0.61 0.63 0.63 0.66 0.67 0.67 0.67 0.67 0.67 0.66 0.65 0.65 0.64 0.64 0.63 0.61 0.58 0.57 0.53 0.49
0.31 0.36 0.37 0.36 0.38 0.41 0.42 0.44 0.43 0.44 0.46 0.47 0.47 0.46 0.48 0.48 0.49 0.53 0.54 0.54 0.55 0.55 0.55 0.55 0.56 0.57 0.58 0.57 0.57 0.56 0.56 0.57 0.57 0.58 0.57 0.54 0.54 0.53 0.52 0.52 0.51 0.48 0.47 0.46
0.26 0.35 0.34 0.34 0.38 0.41 0.42 0.42 0.44 0.43 0.45 0.48 0.49 0.48 0.49 0.49 0.50 0.52 0.53 0.54 0.54 0.53 0.52 0.52 0.52 0.52 0.52 0.53 0.53 0.51 0.49 0.48 0.48 0.47 0.46 0.45 0.43 0.42 0.43 0.43 0.42 0.41 0.40 0.38
0.35 0.37 0.37 0.38 0.40 0.44 0.43 0.44 0.45 0.44 0.47 0.46 0.48 0.48 0.48 0.48 0.49 0.51 0.51 0.51 0.51 0.51 0.52 0.52 0.51 0.50 0.50 0.49 0.48 0.46 0.44 0.43 0.42 0.41 0.39 0.38 0.36 0.33 0.28 0.29 0.28 0.27 0.26 0.26
0.44 0.42 0.36 0.39 0.38 0.43 0.44 0.44 0.45 0.45 0.46 0.47 0.47 0.47 0.47 0.46 0.46 0.46 0.45 0.46 0.46 0.46 0.46 0.45 0.43 0.42 0.43 0.44 0.41 0.39 0.37 0.35 0.34 0.33 0.31 0.30 0.29 0.27 0.27 0.25 0.22 0.19 0.19 0.19
0.43 0.44 0.42 0.43 0.44 0.43 0.44 0.44 0.42 0.41 0.41 0.42 0.45 0.44 0.45 0.43 0.42 0.41 0.41 0.40 0.40 0.39 0.37 0.37 0.36 0.35 0.37 0.36 0.34 0.33 0.32 0.31 0.30 0.29 0.28 0.27 0.25 0.24 0.23 0.22 0.21 0.20 0.20 0.19
0.42 0.43 0.42 0.41 0.41 0.42 0.42 0.41 0.40 0.40 0.41 0.41 0.40 0.40 0.41 0.42 0.42 0.40 0.39 0.39 0.36 0.34 0.33 0.32 0.30 0.31 0.31 0.32 0.32 0.30 0.27 0.26 0.26 0.26 0.24 0.23 0.22 0.21 0.20 0.19 0.19 0.17 0.16 0.16
0.39 0.37 0.38 0.38 0.39 0.39 0.38 0.39 0.38 0.38 0.39 0.38 0.38 0.39 0.38 0.37 0.37 0.36 0.36 0.35 0.33 0.32 0.31 0.29 0.28 0.27 0.27 0.27 0.28 0.27 0.26 0.24 0.23 0.23 0.22 0.21 0.20 0.19 0.18 0.17 0.16 0.15 0.13 0.12
0.42 0.43 0.42 0.40 0.38 0.37 0.36 0.36 0.36 0.36 0.36 0.36 0.36 0.35 0.33 0.32 0.30 0.29 0.29 0.28 0.27 0.25 0.25 0.24 0.24 0.24 0.22 0.23 0.23 0.24 0.23 0.22 0.21 0.20 0.20 0.19 0.18 0.18 0.17 0.16 0.16 0.15 0.15 0.14
0.40 0.38 0.39 0.38 0.37 0.35 0.34 0.33 0.33 0.33 0.33 0.33 0.32 0.31 0.30 0.29 0.27 0.26 0.24 0.24 0.23 0.22 0.20 0.21 0.20 0.20 0.19 0.18 0.20 0.21 0.20 0.19 0.18 0.18 0.17 0.17 0.17 0.16 0.16 0.16 0.15 0.14 0.14 0.13
0.36 0.37 0.37 0.36 0.36 0.34 0.33 0.33 0.33 0.31 0.31 0.30 0.28 0.26 0.24 0.22 0.21 0.20 0.19 0.18 0.19 0.19 0.20 0.19 0.19 0.18 0.17 0.15 0.16 0.17 0.18 0.17 0.15 0.15 0.14 0.15 0.15 0.14 0.13 0.12 0.12 0.13 0.13 0.13
0.33 0.33 0.33 0.32 0.32 0.33 0.32 0.32 0.30 0.29 0.27 0.26 0.23 0.21 0.19 0.18 0.17 0.18 0.19 0.19 0.19 0.17 0.17 0.16 0.15 0.15 0.14 0.13 0.14 0.15 0.15 0.14 0.13 0.13 0.13 0.13 0.13 0.13 0.13 0.13 0.13 0.13 0.13 0.12
0.32 0.31 0.31 0.30 0.30 0.29 0.29 0.29 0.26 0.25 0.22 0.20 0.19 0.18 0.18 0.17 0.17 0.15 0.13 0.13 0.14 0.11 0.12 0.13 0.12 0.10 0.10 0.12 0.13 0.14 0.13 0.13 0.13 0.13 0.13 0.13 0.13 0.13 0.12 0.12 0.11 0.11 0.11 0.11
0.31 0.30 0.30 0.29 0.29 0.27 0.26 0.23 0.21 0.19 0.18 0.17 0.16 0.15 0.14 0.13 0.12 0.12 0.12 0.13 0.13 0.12 0.13 0.13 0.11 0.10 0.11 0.13 0.13 0.13 0.12 0.11 0.11 0.11 0.11 0.11 0.11 0.11 0.10 0.10 0.10 0.10 0.10 0.10
0.30 0.29 0.28 0.27 0.24 0.21 0.19 0.18 0.18 0.17 0.16 0.14 0.13 0.13 0.14 0.14 0.15 0.14 0.13 0.11 0.10 0.11 0.12 0.11 0.10 0.09 0.09 0.11 0.11 0.10 0.10 0.10 0.10 0.10 0.10 0.09 0.10 0.10 0.09 0.09 0.09 0.09 0.09 0.09
0.30 0.26 0.22 0.21 0.20 0.20 0.19 0.17 0.15 0.15 0.14 0.15 0.14 0.14 0.14 0.14 0.13 0.14 0.13 0.12 0.10 0.09 0.12 0.11 0.09 0.09 0.10 0.11 0.11 0.10 0.10 0.10 0.10 0.10 0.09 0.09 0.09 0.09 0.09 0.09 0.09 0.09 0.09 0.09
0.23 0.24 0.23 0.23 0.21 0.19 0.17 0.16 0.16 0.17 0.16 0.16 0.17 0.16 0.16 0.14 0.13 0.12 0.12 0.11 0.11 0.11 0.11 0.12 0.12 0.11 0.11 0.11 0.11 0.10 0.10 0.10 0.10 0.10 0.10 0.09 0.10 0.09 0.09 0.09 0.09 0.09 0.09 0.09
0.25 0.24 0.21 0.18 0.17 0.16 0.17 0.16 0.16 0.16 0.16 0.15 0.15 0.16 0.14 0.14 0.13 0.12 0.12 0.12 0.12 0.12 0.12 0.12 0.12 0.12 0.12 0.11 0.11 0.11 0.11 0.11 0.11 0.10 0.10 0.10 0.10 0.10 0.10 0.10 0.09 0.09 0.09 0.09

GFSNGP_prec_pwat_093.txt.gz
Precipitable_Water
0.19 0.20 0.24 0.24 0.26 0.32 0.34 0.41 0.33 0.36 0.41 0.47 0.52 0.53 0.54 0.56 0.56 0.52 0.53 0.55 0.60 0.64 0.71 0.74 0.78 0.85 0.92 0.96 1.04 1.06 1.10 1.13 1.15 1.16 1.22 1.19 1.13 1.11 1.07 1.05 1.01 0.99 0.95 0.95
0.16 0.17 0.20 0.24 0.29 0.37 0.39 0.43 0.43 0.41 0.41 0.53 0.54 0.53 0.49 0.49 0.48 0.47 0.50 0.52 0.56 0.61 0.66 0.73 0.75 0.81 0.90 0.96 1.02 1.06 1.06 1.11 1.18 1.21 1.21 1.16 1.12 1.09 1.07 1.02 0.98 0.98 0.95 0.93
0.11 0.19 0.21 0.19 0.29 0.34 0.40 0.46 0.44 0.37 0.43 0.49 0.44 0.42 0.41 0.43 0.45 0.46 0.50 0.52 0.55 0.58 0.63 0.71 0.74 0.79 0.87 0.91 0.97 1.03 1.03 1.04 1.08 1.10 1.14 1.13 1.10 1.06 1.06 0.99 0.97 0.95 0.93 0.90
0.16 0.21 0.16 0.34 0.39 0.46 0.41 0.43 0.45 0.44 0.42 0.40 0.37 0.36 0.40 0.44 0.44 0.46 0.49 0.51 0.56 0.59 0.63 0.71 0.75 0.78 0.84 0.90 0.90 0.95 0.95 0.96 1.00 1.02 1.02 1.06 1.06 0.99 1.00 0.99 0.94 0.91 0.92 0.91
0.19 0.19 0.31 0.35 0.42 0.40 0.38 0.37 0.44 0.38 0.37 0.36 0.35 0.35 0.35 0.42 0.46 0.47 0.51 0.53 0.59 0.63 0.63 0.69 0.72 0.75 0.81 0.83 0.85 0.90 0.91 0.91 0.93 0.95 0.95 0.96 0.96 0.96 0.94 0.94 0.91 0.89 0.90 0.90
0.25 0.20 0.21 0.32 0.40 0.43 0.44 0.27 0.43 0.40 0.36 0.35 0.35 0.24 0.26 0.38 0.43 0.49 0.52 0.55 0.59 0.63 0.63 0.66 0.69 0.74 0.76 0.77 0.78 0.82 0.84 0.84 0.86 0.87 0.91 0.87 0.88 0.89 0.91 0.89 0.87 0.87 0.86 0.86
0.25 0.22 0.29 0.39 0.36 0.41 0.22 0.25 0.39 0.38 0.36 0.33 0.29 0.31 0.36 0.41 0.42 0.48 0.53 0.54 0.58 0.61 0.61 0.63 0.67 0.70 0.70 0.71 0.72 0.75 0.77 0.80 0.79 0.83 0.82 0.83 0.82 0.82 0.84 0.85 0.83 0.82 0.80 0.81
0.29 0.25 0.20 0.40 0.35 0.27 0.36 0.40 0.40 0.39 0.36 0.34 0.35 0.38 0.40 0.42 0.44 0.47 0.50 0.53 0.56 0.57 0.59 0.61 0.64 0.65 0.65 0.65 0.68 0.72 0.73 0.73 0.74 0.75 0.76 0.77 0.78 0.76 0.76 0.78 0.76 0.77 0.76 0.77
0.31 0.28 0.40 0.40 0.36 0.43 0.44 0.41 0.39 0.38 0.38 0.37 0.38 0.40 0.42 0.43 0.45 0.47 0.49 0.51 0.54 0.55 0.56 0.59 0.62 0.63 0.61 0.63 0.66 0.67 0.67 0.67 0.68 0.69 0.70 0.71 0.71 0.71 0.70 0.71 0.69 0.68 0.68 0.69
0.33 0.36 0.38 0.39 0.40 0.40 0.41 0.39 0.40 0.41 0.40 0.40 0.40 0.42 0.43 0.45 0.46 0.48 0.49 0.49 0.51 0.51 0.52 0.54 0.58 0.60 0.61 0.61 0.63 0.62 0.61 0.62 0.62 0.63 0.64 0.65 0.66 0.66 0.64 0.63 0.63 0.63 0.63 0.63
0.32 0.36 0.36 0.38 0.39 0.39 0.38 0.40 0.40 0.42 0.41 0.41 0.42 0.43 0.44 0.45 0.46 0.48 0.49 0.50 0.50 0.49 0.50 0.51 0.54 0.57 0.59 0.60 0.60 0.59 0.58 0.58 0.58 0.58 0.58 0.58 0.60 0.60 0.60 0.61 0.61 0.59 0.59 0.59
0.26 0.35 0.34 0.33 0.37 0.39 0.38 0.38 0.40 0.40 0.39 0.41 0.42 0.43 0.44 0.44 0.46 0.47 0.48 0.49 0.49 0.48 0.48 0.49 0.51 0.53 0.55 0.55 0.55 0.53 0.52 0.52 0.51 0.50 0.50 0.49 0.50 0.51 0.54 0.54 0.54 0.55 0.55 0.54
0.33 0.38 0.37 0.38 0.39 0.40 0.38 0.39 0.41 0.41 0.41 0.40 0.42 0.43 0.44 0.44 0.46 0.47 0.47 0.47 0.47 0.47 0.48 0.48 0.48 0.47 0.47 0.47 0.46 0.45 0.43 0.43 0.43 0.43 0.42 0.40 0.38 0.34 0.31 0.33 0.34 0.34 0.34 0.34
0.41 0.38 0.33 0.37 0.34 0.39 0.39 0.40 0.41 0.42 0.43 0.42 0.42 0.43 0.44 0.43 0.44 0.43 0.43 0.44 0.44 0.43 0.43 0.42 0.41 0.40 0.41 0.40 0.38 0.36 0.35 0.35 0.34 0.33 0.32 0.31 0.30 0.28 0.27 0.24 0.23 0.24 0.26 0.26
0.40 0.41 0.39 0.40 0.40 0.39 0.40 0.39 0.38 0.39 0.41 0.41 0.43 0.41 0.41 0.40 0.41 0.41 0.42 0.41 0.39 0.37 0.36 0.36 0.35 0.35 0.36 0.35 0.33 0.33 0.33 0.31 0.30 0.29 0.28 0.27 0.27 0.26 0.26 0.24 0.23 0.22 0.23 0.23
0.41 0.41 0.41 0.39 0.38 0.39 0.39 0.37 0.36 0.37 0.39 0.40 0.40 0.40 0.40 0.39 0.38 0.38 0.38 0.36 0.33 0.31 0.31 0.30 0.30 0.31 0.32 0.32 0.30 0.27 0.28 0.28 0.27 0.26 0.26 0.25 0.25 0.24 0.23 0.22 0.20 0.19 0.20 0.20
0.38 0.37 0.38 0.37 0.38 0.38 0.38 0.38 0.39 0.39 0.39 0.39 0.39 0.39 0.38 0.35 0.33 0.31 0.30 0.30 0.28 0.27 0.26 0.24 0.24 0.26 0.27 0.27 0.27 0.26 0.25 0.25 0.24 0.24 0.23 0.22 0.22 0.21 0.21 0.19 0.17 0.16 0.17 0.18
0.43 0.43 0.42 0.41 0.39 0.38 0.38 0.39 0.38 0.37 0.36 0.36 0.35 0.34 0.33 0.30 0.28 0.27 0.27 0.26 0.23 0.21 0.20 0.20 0.19 0.19 0.20 0.21 0.22 0.22 0.21 0.20 0.19 0.18 0.19 0.19 0.19 0.18 0.18 0.17 0.16 0.15 0.15 0.15
0.41 0.40 0.40 0.40 0.39 0.38 0.36 0.35 0.35 0.35 0.35 0.33 0.32 0.30 0.28 0.25 0.23 0.22 0.22 0.21 0.18 0.16 0.17 0.18 0.17 0.15 0.16 0.17 0.18 0.18 0.16 0.16 0.16 0.15 0.16 0.16 0.15 0.15 0.15 0.15 0.14 0.14 0.14 0.13
0.36 0.37 0.37 0.37 0.37 0.35 0.33 0.34 0.33 0.32 0.30 0.28 0.24 0.21 0.18 0.18 0.18 0.18 0.18 0.16 0.15 0.13 0.13 0.12 0.12 0.11 0.11 0.13 0.14 0.15 0.14 0.15 0.14 0.13 0.14 0.14 0.14 0.13 0.13 0.13 0.13 0.14 0.14 0.13
0.32 0.32 0.32 0.32 0.32 0.32 0.32 0.31 0.29 0.26 0.24 0.21 0.18 0.16 0.15 0.14 0.15 0.15 0.14 0.12 0.12 0.13 0.13 0.12 0.11 0.09 0.10 0.13 0.13 0.13 0.12 0.13 0.13 0.13 0.12 0.12 0.13 0.13 0.12 0.12 0.12 0.12 0.12 0.12
0.31 0.30 0.30 0.30 0.29 0.28 0.28 0.25 0.22 0.19 0.17 0.16 0.17 0.16 0.15 0.14 0.14 0.13 0.14 0.14 0.14 0.13 0.13 0.13 0.11 0.09 0.10 0.12 0.12 0.11 0.11 0.11 0.11 0.11 0.11 0.11 0.11 0.11 0.11 0.11 0.11 0.11 0.11 0.11
0.30 0.29 0.29 0.29 0.27 0.25 0.23 0.19 0.17 0.16 0.15 0.14 0.13 0.14 0.14 0.15 0.15 0.13 0.13 0.14 0.13 0.13 0.12 0.11 0.10 0.09 0.10 0.11 0.11 0.11 0.11 0.11 0.10 0.10 0.10 0.10 0.09 0.10 0.10 0.10 0.10 0.10 0.10 0.10
0.31 0.30 0.29 0.27 0.23 0.21 0.18 0.18 0.17 0.15 0.14 0.14 0.14 0.15 0.14 0.14 0.16 0.16 0.15 0.14 0.13 0.11 0.11 0.12 0.11 0.10 0.09 0.11 0.12 0.11 0.10 0.10 0.11 0.11 0.11 0.10 0.10 0.11 0.11 0.10 0.10 0.10 0.10 0.09
0.29 0.27 0.26 0.24 0.22 0.21 0.19 0.16 0.16 0.16 0.17 0.17 0.17 0.17 0.17 0.17 0.15 0.15 0.14 0.14 0.13 0.12 0.12 0.12 0.12 0.11 0.11 0.10 0.11 0.11 0.10 0.10 0.11 0.10 0.09 0.09 0.09 0.10 0.10 0.10 0.10 0.10 0.10 0.10
0.29 0.26 0.24 0.23 0.22 0.19 0.17 0.16 0.17 0.18 0.18 0.17 0.19 0.19 0.19 0.19 0.17 0.16 0.15 0.14 0.13 0.12 0.12 0.12 0.12 0.12 0.12 0.11 0.11 0.11 0.11 0.11 0.11 0.11 0.11 0.11 0.11 0.11 0.10 0.10 0.11 0.10 0.10 0.10
0.27 0.25 0.22 0.21 0.19 0.17 0.16 0.16 0.16 0.16 0.16 0.16 0.16 0.18 0.19 0.19 0.18 0.16 0.15 0.14 0.13 0.13 0.13 0.14 0.14 0.13 0.13 0.13 0.12 0.12 0.11 0.11 0.11 0.11 0.11 0.11 0.11 0.10 0.10 0.10 0.10 0.10 0.10 0.10

GFSNGP_prec_pwat_096.txt.gz
Precipitable_Water
0.18 0.19 0.19 0.18 0.16 0.18 0.19 0.24 0.28 0.35 0.39 0.44 0.49 0.52 0.53 0.53 0.51 0.48 0.48 0.51 0.54 0.57 0.62 0.69 0.74 0.78 0.79 0.85 0.90 1.01 0.98 1.08 1.16 1.21 1.17 1.17 1.14 1.16 1.16 1.14 1.06 1.03 0.98 0.98
0.12 0.16 0.16 0.18 0.18 0.21 0.22 0.32 0.33 0.40 0.40 0.51 0.52 0.53 0.49 0.46 0.45 0.44 0.45 0.49 0.53 0.55 0.59 0.65 0.71 0.74 0.78 0.82 0.88 0.98 1.03 0.96 1.10 1.13 1.08 1.11 1.10 1.12 1.08 1.10 1.05 0.99 0.97 0.95
0.08 0.14 0.17 0.11 0.14 0.19 0.32 0.38 0.40 0.35 0.42 0.50 0.45 0.43 0.43 0.43 0.40 0.42 0.45 0.48 0.51 0.53 0.55 0.61 0.68 0.73 0.74 0.82 0.89 0.95 0.96 1.04 1.03 1.03 1.06 1.07 1.05 1.07 1.06 1.05 1.08 1.00 0.93 0.94
0.10 0.18 0.10 0.29 0.41 0.40 0.37 0.40 0.43 0.44 0.45 0.44 0.40 0.37 0.37 0.40 0.41 0.43 0.45 0.47 0.51 0.56 0.58 0.62 0.68 0.72 0.74 0.79 0.85 0.90 0.89 0.90 0.97 1.01 1.01 1.00 1.00 1.02 1.06 1.06 1.02 1.03 0.96 0.91
0.15 0.16 0.23 0.31 0.38 0.38 0.36 0.34 0.43 0.40 0.39 0.38 0.37 0.35 0.33 0.37 0.40 0.43 0.47 0.49 0.52 0.56 0.61 0.63 0.66 0.71 0.73 0.75 0.78 0.82 0.83 0.89 0.91 0.94 0.95 0.93 0.96 0.95 0.97 0.99 0.99 0.97 0.94 0.96
0.22 0.18 0.17 0.31 0.42 0.48 0.48 0.29 0.42 0.40 0.37 0.36 0.35 0.25 0.28 0.36 0.39 0.43 0.48 0.51 0.52 0.56 0.60 0.62 0.64 0.67 0.70 0.71 0.71 0.74 0.78 0.82 0.84 0.87 0.88 0.90 0.89 0.89 0.90 0.91 0.88 0.91 0.91 0.90
0.23 0.21 0.26 0.38 0.44 0.47 0.26 0.26 0.39 0.38 0.36 0.35 0.31 0.33 0.37 0.40 0.41 0.45 0.47 0.49 0.53 0.55 0.56 0.59 0.62 0.64 0.63 0.65 0.66 0.71 0.73 0.77 0.79 0.82 0.83 0.83 0.83 0.84 0.85 0.83 0.85 0.83 0.83 0.85
0.25 0.21 0.19 0.41 0.39 0.29 0.36 0.39 0.39 0.38 0.36 0.35 0.37 0.39 0.40 0.41 0.43 0.45 0.46 0.48 0.50 0.52 0.53 0.58 0.61 0.61 0.61 0.61 0.63 0.66 0.69 0.70 0.70 0.74 0.75 0.76 0.76 0.76 0.77 0.77 0.76 0.76 0.75 0.75
0.29 0.26 0.38 0.41 0.39 0.43 0.43 0.39 0.39 0.38 0.38 0.38 0.38 0.39 0.40 0.41 0.43 0.45 0.46 0.48 0.49 0.50 0.52 0.56 0.59 0.59 0.57 0.58 0.61 0.62 0.63 0.63 0.65 0.67 0.68 0.69 0.69 0.69 0.70 0.70 0.68 0.68 0.68 0.68
0.31 0.34 0.37 0.38 0.39 0.41 0.42 0.39 0.40 0.41 0.40 0.40 0.40 0.40 0.41 0.43 0.44 0.45 0.46 0.47 0.49 0.49 0.49 0.51 0.55 0.57 0.58 0.58 0.59 0.59 0.59 0.59 0.60 0.60 0.61 0.63 0.64 0.64 0.63 0.63 0.63 0.63 0.62 0.62
0.30 0.34 0.35 0.37 0.38 0.38 0.38 0.40 0.40 0.40 0.40 0.40 0.41 0.41 0.41 0.42 0.44 0.45 0.46 0.48 0.49 0.48 0.48 0.49 0.52 0.53 0.56 0.57 0.58 0.56 0.55 0.55 0.56 0.57 0.57 0.57 0.58 0.59 0.58 0.60 0.60 0.58 0.58 0.59
0.26 0.34 0.33 0.33 0.37 0.40 0.37 0.36 0.39 0.38 0.38 0.39 0.40 0.40 0.42 0.42 0.44 0.45 0.45 0.47 0.47 0.48 0.48 0.48 0.49 0.49 0.49 0.50 0.49 0.48 0.47 0.47 0.46 0.45 0.46 0.48 0.50 0.52 0.55 0.56 0.56 0.57 0.57 0.56
0.32 0.38 0.36 0.37 0.38 0.39 0.37 0.37 0.38 0.39 0.39 0.38 0.39 0.40 0.41 0.41 0.43 0.44 0.44 0.45 0.45 0.45 0.46 0.45 0.44 0.43 0.43 0.43 0.42 0.39 0.38 0.38 0.39 0.38 0.36 0.33 0.31 0.31 0.32 0.37 0.39 0.39 0.39 0.38
0.40 0.37 0.33 0.36 0.34 0.39 0.39 0.39 0.40 0.40 0.40 0.39 0.39 0.39 0.39 0.39 0.40 0.41 0.41 0.42 0.42 0.43 0.41 0.40 0.39 0.37 0.38 0.38 0.35 0.34 0.33 0.32 0.31 0.31 0.31 0.29 0.27 0.26 0.25 0.25 0.24 0.25 0.28 0.29
0.38 0.39 0.37 0.39 0.39 0.39 0.39 0.38 0.36 0.36 0.37 0.37 0.39 0.38 0.38 0.38 0.38 0.38 0.38 0.36 0.35 0.36 0.36 0.36 0.34 0.34 0.35 0.33 0.31 0.30 0.29 0.28 0.28 0.27 0.27 0.27 0.26 0.25 0.24 0.23 0.22 0.22 0.23 0.23
0.40 0.40 0.39 0.37 0.37 0.37 0.37 0.36 0.35 0.36 0.36 0.37 0.37 0.38 0.38 0.38 0.37 0.35 0.33 0.32 0.29 0.27 0.28 0.29 0.29 0.29 0.30 0.29 0.27 0.26 0.25 0.25 0.25 0.24 0.24 0.24 0.23 0.22 0.21 0.19 0.20 0.20 0.20 0.20
0.36 0.35 0.37 0.36 0.36 0.36 0.36 0.37 0.37 0.37 0.37 0.36 0.36 0.38 0.37 0.34 0.31 0.29 0.28 0.27 0.26 0.24 0.22 0.21 0.22 0.23 0.24 0.23 0.22 0.21 0.21 0.21 0.20 0.20 0.20 0.19 0.19 0.18 0.17 0.16 0.16 0.16 0.16 0.17
0.43 0.42 0.41 0.39 0.38 0.38 0.38 0.39 0.39 0.39 0.38 0.38 0.37 0.35 0.31 0.29 0.27 0.26 0.24 0.23 0.20 0.19 0.18 0.17 0.17 0.18 0.19 0.19 0.18 0.17 0.16 0.15 0.15 0.15 0.15 0.15 0.15 0.15 0.14 0.13 0.13 0.13 0.13 0.14
0.41 0.40 0.40 0.40 0.40 0.39 0.37 0.36 0.35 0.36 0.36 0.35 0.33 0.30 0.27 0.24 0.22 0.21 0.20 0.18 0.15 0.13 0.13 0.14 0.13 0.12 0.13 0.15 0.15 0.15 0.15 0.14 0.14 0.15 0.15 0.14 0.14 0.14 0.14 0.13 0.13 0.13 0.13 0.12
0.36 0.37 0.37 0.37 0.37 0.35 0.34 0.35 0.34 0.33 0.32 0.30 0.25 0.21 0.17 0.16 0.16 0.15 0.14 0.13 0.12 0.12 0.13 0.12 0.11 0.11 0.12 0.13 0.14 0.13 0.13 0.13 0.13 0.13 0.12 0.12 0.12 0.12 0.12 0.12 0.12 0.12 0.12 0.12
0.32 0.33 0.32 0.32 0.32 0.32 0.31 0.30 0.28 0.25 0.22 0.18 0.14 0.13 0.13 0.13 0.13 0.14 0.13 0.12 0.13 0.13 0.13 0.13 0.12 0.11 0.11 0.13 0.12 0.12 0.11 0.12 0.12 0.11 0.11 0.12 0.12 0.11 0.11 0.11 0.11 0.11 0.11 0.11
0.30 0.30 0.29 0.29 0.28 0.28 0.27 0.25 0.21 0.17 0.15 0.14 0.14 0.13 0.13 0.13 0.13 0.14 0.15 0.14 0.14 0.14 0.14 0.13 0.11 0.10 0.11 0.12 0.12 0.11 0.11 0.11 0.11 0.11 0.11 0.11 0.10 0.11 0.11 0.11 0.11 0.11 0.11 0.10
0.31 0.29 0.28 0.28 0.27 0.25 0.22 0.18 0.16 0.15 0.14 0.13 0.13 0.13 0.13 0.14 0.14 0.13 0.13 0.15 0.15 0.14 0.13 0.12 0.11 0.11 0.10 0.11 0.11 0.10 0.10 0.10 0.10 0.10 0.10 0.09 0.09 0.09 0.10 0.09 0.10 0.10 0.10 0.10
0.30 0.29 0.28 0.26 0.24 0.19 0.17 0.16 0.15 0.13 0.13 0.14 0.14 0.15 0.16 0.15 0.15 0.16 0.16 0.15 0.14 0.14 0.13 0.13 0.12 0.11 0.10 0.10 0.11 0.11 0.10 0.10 0.10 0.10 0.11 0.10 0.10 0.10 0.10 0.10 0.09 0.10 0.10 0.10
0.30 0.28 0.27 0.26 0.22 0.20 0.18 0.16 0.16 0.16 0.16 0.16 0.17 0.17 0.17 0.17 0.15 0.16 0.16 0.15 0.15 0.14 0.13 0.12 0.12 0.12 0.11 0.11 0.10 0.11 0.10 0.10 0.10 0.10 0.10 0.10 0.09 0.09 0.10 0.10 0.10 0.10 0.10 0.10
0.28 0.29 0.28 0.25 0.23 0.21 0.17 0.16 0.16 0.16 0.17 0.17 0.17 0.18 0.18 0.18 0.19 0.19 0.18 0.16 0.15 0.14 0.13 0.12 0.12 0.12 0.12 0.11 0.11 0.11 0.11 0.11 0.11 0.10 0.10 0.11 0.11 0.10 0.10 0.10 0.10 0.10 0.10 0.10
0.30 0.29 0.25 0.23 0.21 0.19 0.18 0.17 0.17 0.17 0.17 0.17 0.16 0.16 0.18 0.19 0.19 0.18 0.17 0.15 0.15 0.14 0.14 0.14 0.14 0.13 0.13 0.13 0.12 0.12 0.12 0.12 0.11 0.11 0.11 0.11 0.11 0.11 0.11 0.11 0.10 0.10 0.10 0.10

GFSNGP_prec_pwat_102.txt.gz
Precipitable_Water
0.14 0.15 0.15 0.14 0.13 0.13 0.11 0.12 0.11 0.10 0.12 0.15 0.26 0.33 0.43 0.49 0.51 0.52 0.51 0.49 0.52 0.54 0.57 0.59 0.64 0.71 0.76 0.78 0.86 0.93 0.99 1.03 1.02 1.07 1.12 1.18 1.25 1.29 1.33 1.33 1.26 1.21 1.15 1.10
0.10 0.12 0.13 0.09 0.09 0.10 0.12 0.12 0.13 0.13 0.11 0.27 0.31 0.41 0.42 0.45 0.49 0.50 0.48 0.47 0.50 0.52 0.55 0.57 0.60 0.66 0.71 0.75 0.78 0.84 0.86 0.91 0.98 0.99 1.01 1.09 1.19 1.22 1.23 1.20 1.16 1.14 1.09 1.05
0.06 0.10 0.10 0.06 0.09 0.15 0.17 0.21 0.18 0.09 0.16 0.29 0.35 0.39 0.42 0.44 0.46 0.47 0.43 0.46 0.48 0.50 0.53 0.56 0.59 0.64 0.67 0.73 0.76 0.79 0.82 0.86 0.87 0.88 0.91 0.99 1.03 1.05 1.10 1.08 1.08 1.04 1.02 0.99
0.09 0.10 0.04 0.08 0.22 0.30 0.28 0.26 0.25 0.25 0.28 0.39 0.40 0.43 0.46 0.47 0.42 0.42 0.44 0.47 0.49 0.50 0.52 0.56 0.60 0.64 0.67 0.71 0.73 0.74 0.77 0.78 0.82 0.83 0.91 0.95 0.93 0.94 1.02 1.01 0.98 1.00 0.97 0.96
0.09 0.08 0.10 0.15 0.28 0.30 0.28 0.26 0.33 0.34 0.38 0.40 0.44 0.42 0.38 0.42 0.41 0.41 0.44 0.48 0.49 0.51 0.52 0.55 0.57 0.62 0.65 0.67 0.70 0.70 0.71 0.74 0.83 0.86 0.87 0.83 0.85 0.91 0.92 0.90 0.92 0.91 0.92 0.92
0.15 0.12 0.13 0.24 0.33 0.40 0.38 0.24 0.37 0.40 0.40 0.41 0.41 0.29 0.31 0.38 0.40 0.42 0.45 0.48 0.48 0.50 0.52 0.52 0.54 0.58 0.60 0.61 0.64 0.65 0.67 0.73 0.79 0.80 0.83 0.84 0.86 0.86 0.87 0.89 0.83 0.85 0.85 0.87
0.16 0.17 0.20 0.30 0.35 0.42 0.23 0.26 0.39 0.41 0.41 0.41 0.35 0.35 0.38 0.41 0.41 0.43 0.45 0.46 0.48 0.49 0.49 0.51 0.53 0.54 0.54 0.57 0.58 0.61 0.64 0.67 0.72 0.72 0.76 0.78 0.79 0.82 0.83 0.82 0.81 0.80 0.80 0.83
0.21 0.18 0.17 0.36 0.36 0.29 0.34 0.40 0.40 0.40 0.41 0.39 0.40 0.40 0.41 0.42 0.42 0.44 0.44 0.45 0.46 0.46 0.47 0.50 0.52 0.52 0.51 0.51 0.57 0.60 0.61 0.63 0.64 0.66 0.69 0.71 0.72 0.73 0.74 0.75 0.75 0.74 0.75 0.75
0.26 0.24 0.34 0.38 0.37 0.42 0.43 0.39 0.39 0.39 0.41 0.41 0.40 0.39 0.40 0.40 0.41 0.43 0.43 0.44 0.46 0.46 0.46 0.48 0.49 0.50 0.48 0.50 0.54 0.56 0.57 0.57 0.59 0.60 0.62 0.63 0.64 0.64 0.65 0.68 0.67 0.66 0.66 0.66
0.29 0.32 0.34 0.37 0.41 0.42 0.42 0.41 0.41 0.42 0.42 0.42 0.39 0.40 0.40 0.41 0.41 0.42 0.43 0.44 0.45 0.44 0.43 0.44 0.46 0.46 0.46 0.45 0.46 0.49 0.50 0.52 0.54 0.56 0.57 0.58 0.59 0.59 0.59 0.59 0.59 0.60 0.60 0.60
0.30 0.34 0.36 0.36 0.39 0.40 0.41 0.41 0.41 0.41 0.41 0.41 0.40 0.39 0.40 0.40 0.40 0.41 0.42 0.44 0.44 0.43 0.42 0.41 0.41 0.40 0.41 0.40 0.39 0.35 0.36 0.39 0.41 0.43 0.46 0.48 0.51 0.53 0.54 0.57 0.57 0.55 0.55 0.56
0.26 0.34 0.33 0.33 0.38 0.40 0.38 0.38 0.39 0.38 0.37 0.39 0.39 0.38 0.38 0.38 0.40 0.40 0.40 0.41 0.40 0.40 0.39 0.38 0.37 0.36 0.36 0.36 0.35 0.33 0.30 0.29 0.29 0.30 0.31 0.33 0.34 0.36 0.40 0.42 0.43 0.44 0.45 0.44
0.32 0.37 0.36 0.36 0.39 0.39 0.37 0.37 0.38 0.38 0.37 0.36 0.37 0.37 0.37 0.36 0.37 0.38 0.38 0.37 0.36 0.35 0.35 0.35 0.35 0.34 0.35 0.35 0.33 0.31 0.30 0.28 0.27 0.26 0.26 0.26 0.26 0.26 0.26 0.29 0.31 0.32 0.32 0.32
0.36 0.36 0.32 0.35 0.33 0.38 0.39 0.38 0.38 0.38 0.38 0.38 0.38 0.38 0.36 0.35 0.35 0.34 0.34 0.34 0.33 0.33 0.32 0.31 0.31 0.30 0.32 0.32 0.30 0.28 0.28 0.27 0.25 0.24 0.23 0.23 0.22 0.22 0.22 0.21 0.21 0.22 0.25 0.26
0.35 0.37 0.35 0.37 0.37 0.37 0.38 0.38 0.36 0.35 0.36 0.36 0.37 0.37 0.36 0.33 0.31 0.30 0.31 0.30 0.28 0.27 0.27 0.27 0.26 0.25 0.26 0.26 0.24 0.23 0.23 0.23 0.22 0.21 0.20 0.19 0.18 0.18 0.17 0.17 0.17 0.17 0.17 0.18
0.36 0.36 0.35 0.34 0.34 0.35 0.35 0.35 0.34 0.34 0.35 0.35 0.35 0.35 0.35 0.33 0.31 0.28 0.26 0.25 0.23 0.22 0.22 0.22 0.22 0.21 0.21 0.20 0.18 0.17 0.17 0.17 0.16 0.16 0.15 0.14 0.13 0.12 0.12 0.13 0.13 0.12 0.12 0.12
0.34 0.32 0.34 0.33 0.33 0.34 0.34 0.35 0.35 0.35 0.35 0.35 0.35 0.34 0.32 0.29 0.27 0.25 0.23 0.21 0.20 0.18 0.17 0.17 0.16 0.17 0.16 0.16 0.15 0.14 0.14 0.14 0.15 0.15 0.14 0.13 0.13 0.13 0.13 0.12 0.12 0.12 0.12 0.12
0.40 0.40 0.39 0.38 0.36 0.35 0.35 0.36 0.36 0.36 0.35 0.35 0.35 0.31 0.28 0.26 0.23 0.20 0.18 0.18 0.17 0.15 0.13 0.12 0.12 0.14 0.14 0.15 0.15 0.15 0.14 0.14 0.14 0.13 0.14 0.14 0.13 0.13 0.13 0.12 0.12 0.11 0.11 0.11
0.42 0.41 0.41 0.40 0.39 0.37 0.36 0.36 0.36 0.36 0.36 0.35 0.32 0.29 0.26 0.23 0.20 0.19 0.17 0.13 0.12 0.11 0.11 0.12 0.12 0.12 0.13 0.14 0.14 0.14 0.14 0.13 0.13 0.13 0.13 0.13 0.13 0.13 0.12 0.12 0.12 0.11 0.11 0.11
0.38 0.39 0.39 0.38 0.38 0.37 0.35 0.36 0.36 0.35 0.34 0.31 0.27 0.22 0.18 0.17 0.16 0.14 0.13 0.12 0.12 0.12 0.13 0.12 0.11 0.12 0.13 0.14 0.15 0.14 0.14 0.13 0.12 0.12 0.12 0.12 0.11 0.11 0.12 0.12 0.11 0.11 0.11 0.11
0.33 0.33 0.33 0.32 0.32 0.32 0.32 0.32 0.31 0.29 0.27 0.20 0.16 0.14 0.14 0.14 0.13 0.14 0.13 0.12 0.13 0.14 0.13 0.13 0.12 0.13 0.14 0.15 0.14 0.13 0.12 0.11 0.11 0.11 0.11 0.11 0.11 0.11 0.11 0.11 0.11 0.11 0.11 0.11
0.31 0.30 0.30 0.29 0.29 0.28 0.28 0.27 0.24 0.20 0.16 0.15 0.14 0.13 0.12 0.12 0.13 0.13 0.14 0.13 0.14 0.14 0.14 0.13 0.13 0.13 0.13 0.13 0.13 0.12 0.11 0.11 0.11 0.11 0.10 0.10 0.10 0.09 0.09 0.10 0.10 0.10 0.11 0.10
0.30 0.30 0.29 0.29 0.28 0.26 0.25 0.22 0.20 0.17 0.16 0.15 0.13 0.13 0.13 0.14 0.14 0.13 0.12 0.15 0.14 0.14 0.14 0.14 0.14 0.14 0.13 0.12 0.12 0.12 0.11 0.10 0.10 0.10 0.10 0.10 0.10 0.09 0.09 0.09 0.09 0.10 0.10 0.10
0.30 0.30 0.29 0.28 0.25 0.23 0.20 0.19 0.18 0.17 0.14 0.14 0.15 0.15 0.15 0.15 0.15 0.16 0.16 0.16 0.15 0.15 0.14 0.14 0.15 0.14 0.13 0.12 0.11 0.11 0.10 0.10 0.10 0.10 0.10 0.10 0.10 0.10 0.09 0.09 0.09 0.10 0.10 0.10
0.29 0.28 0.26 0.24 0.22 0.22 0.21 0.21 0.18 0.16 0.15 0.15 0.16 0.16 0.16 0.17 0.16 0.16 0.16 0.16 0.16 0.15 0.16 0.16 0.15 0.14 0.13 0.13 0.12 0.12 0.12 0.11 0.11 0.11 0.10 0.10 0.10 0.10 0.10 0.10 0.10 0.10 0.10 0.10
0.28 0.26 0.25 0.26 0.25 0.25 0.25 0.22 0.18 0.16 0.16 0.15 0.16 0.17 0.17 0.17 0.17 0.17 0.17 0.17 0.17 0.18 0.16 0.15 0.14 0.13 0.13 0.12 0.12 0.12 0.12 0.11 0.11 0.11 0.11 0.12 0.11 0.11 0.11 0.11 0.11 0.10 0.11 0.11
0.27 0.27 0.28 0.28 0.28 0.28 0.25 0.21 0.17 0.15 0.15 0.15 0.13 0.13 0.13 0.14 0.14 0.15 0.16 0.17 0.17 0.15 0.14 0.13 0.12 0.12 0.11 0.11 0.11 0.11 0.11 0.11 0.12 0.12 0.12 0.12 0.12 0.11 0.12 0.12 0.12 0.12 0.12 0.11

GFSNGP_prec_pwat_105.txt.gz
Precipitable_Water
0.13 0.12 0.14 0.13 0.12 0.12 0.11 0.12 0.10 0.09 0.08 0.10 0.14 0.20 0.23 0.28 0.36 0.46 0.48 0.52 0.52 0.54 0.57 0.58 0.61 0.65 0.71 0.77 0.80 0.88 0.94 0.98 0.99 1.03 1.05 1.09 1.14 1.17 1.21 1.28 1.29 1.27 1.26 1.21
0.11 0.12 0.11 0.09 0.10 0.10 0.10 0.10 0.11 0.10 0.09 0.14 0.21 0.23 0.26 0.33 0.42 0.45 0.48 0.51 0.52 0.52 0.54 0.57 0.59 0.62 0.67 0.71 0.76 0.81 0.86 0.92 0.98 0.99 1.05 1.06 1.08 1.09 1.10 1.20 1.19 1.25 1.20 1.14
0.07 0.10 0.10 0.05 0.08 0.12 0.16 0.21 0.21 0.16 0.18 0.24 0.21 0.23 0.30 0.40 0.43 0.46 0.48 0.49 0.51 0.51 0.53 0.55 0.58 0.60 0.64 0.69 0.74 0.76 0.79 0.84 0.88 0.93 0.97 0.93 0.96 1.02 1.01 1.09 1.13 1.11 1.12 1.11
0.08 0.09 0.03 0.09 0.22 0.23 0.26 0.28 0.30 0.27 0.29 0.29 0.26 0.32 0.41 0.44 0.44 0.46 0.45 0.47 0.50 0.51 0.52 0.55 0.57 0.61 0.64 0.67 0.70 0.73 0.76 0.78 0.81 0.82 0.86 0.86 0.91 0.95 0.99 1.00 1.00 1.04 1.03 1.04
0.07 0.08 0.08 0.13 0.22 0.26 0.25 0.25 0.31 0.30 0.31 0.32 0.36 0.40 0.39 0.44 0.46 0.45 0.46 0.47 0.50 0.52 0.52 0.53 0.55 0.57 0.61 0.64 0.66 0.68 0.69 0.71 0.76 0.76 0.79 0.82 0.89 0.90 0.91 0.89 0.89 0.95 0.97 0.96
0.14 0.10 0.09 0.22 0.30 0.35 0.35 0.22 0.35 0.35 0.35 0.36 0.39 0.32 0.35 0.42 0.44 0.45 0.45 0.47 0.49 0.51 0.52 0.52 0.53 0.55 0.55 0.58 0.61 0.63 0.65 0.66 0.69 0.72 0.76 0.77 0.82 0.79 0.85 0.86 0.84 0.87 0.87 0.91
0.18 0.16 0.18 0.28 0.33 0.39 0.22 0.24 0.36 0.38 0.39 0.39 0.36 0.38 0.40 0.41 0.42 0.44 0.45 0.47 0.49 0.49 0.48 0.50 0.52 0.52 0.51 0.52 0.54 0.59 0.64 0.67 0.67 0.69 0.72 0.75 0.75 0.78 0.79 0.79 0.78 0.80 0.82 0.79
0.21 0.17 0.16 0.34 0.34 0.27 0.32 0.37 0.38 0.39 0.40 0.39 0.40 0.40 0.41 0.41 0.42 0.44 0.45 0.46 0.48 0.47 0.47 0.48 0.50 0.49 0.48 0.48 0.53 0.56 0.59 0.60 0.61 0.65 0.67 0.69 0.70 0.71 0.73 0.74 0.73 0.73 0.74 0.73
0.25 0.24 0.34 0.37 0.35 0.39 0.40 0.38 0.38 0.39 0.41 0.41 0.40 0.41 0.42 0.41 0.42 0.43 0.44 0.44 0.46 0.45 0.44 0.45 0.45 0.44 0.42 0.44 0.47 0.49 0.52 0.54 0.56 0.57 0.60 0.62 0.62 0.64 0.65 0.66 0.65 0.65 0.66 0.66
0.28 0.31 0.33 0.36 0.38 0.40 0.41 0.40 0.41 0.42 0.42 0.42 0.40 0.41 0.41 0.42 0.42 0.42 0.43 0.43 0.43 0.41 0.39 0.38 0.38 0.38 0.37 0.36 0.35 0.36 0.38 0.41 0.45 0.48 0.51 0.53 0.56 0.57 0.58 0.58 0.58 0.59 0.59 0.60
0.29 0.33 0.35 0.36 0.38 0.40 0.41 0.42 0.41 0.42 0.42 0.41 0.41 0.40 0.40 0.40 0.41 0.41 0.42 0.41 0.39 0.37 0.36 0.35 0.34 0.33 0.34 0.33 0.30 0.27 0.28 0.29 0.30 0.32 0.34 0.35 0.38 0.40 0.42 0.46 0.47 0.46 0.47 0.48
0.27 0.35 0.33 0.34 0.39 0.41 0.39 0.39 0.40 0.40 0.39 0.40 0.40 0.38 0.39 0.39 0.40 0.40 0.39 0.37 0.35 0.34 0.33 0.33 0.32 0.31 0.32 0.32 0.30 0.28 0.26 0.26 0.26 0.26 0.27 0.28 0.29 0.30 0.33 0.33 0.34 0.34 0.35 0.35
0.32 0.37 0.37 0.38 0.40 0.40 0.38 0.38 0.39 0.38 0.38 0.37 0.38 0.38 0.37 0.36 0.37 0.36 0.34 0.33 0.31 0.31 0.30 0.29 0.29 0.28 0.30 0.30 0.28 0.27 0.25 0.24 0.24 0.23 0.22 0.22 0.23 0.23 0.22 0.24 0.25 0.26 0.27 0.28
0.37 0.37 0.33 0.35 0.34 0.39 0.39 0.38 0.38 0.38 0.38 0.37 0.37 0.37 0.36 0.34 0.34 0.33 0.31 0.31 0.30 0.28 0.26 0.25 0.25 0.24 0.25 0.25 0.24 0.23 0.22 0.21 0.20 0.20 0.19 0.18 0.18 0.17 0.17 0.16 0.16 0.17 0.19 0.20
0.35 0.37 0.36 0.37 0.37 0.36 0.38 0.38 0.36 0.35 0.36 0.36 0.37 0.36 0.34 0.31 0.30 0.29 0.29 0.27 0.26 0.24 0.22 0.21 0.20 0.20 0.20 0.19 0.17 0.17 0.17 0.16 0.16 0.16 0.15 0.14 0.14 0.14 0.14 0.13 0.13 0.12 0.13 0.13
0.35 0.35 0.35 0.34 0.34 0.35 0.35 0.35 0.34 0.34 0.35 0.35 0.35 0.35 0.33 0.31 0.29 0.27 0.26 0.24 0.20 0.18 0.18 0.17 0.16 0.16 0.16 0.16 0.15 0.15 0.15 0.15 0.15 0.14 0.13 0.13 0.13 0.13 0.12 0.12 0.12 0.12 0.11 0.12
0.33 0.31 0.33 0.32 0.33 0.33 0.33 0.34 0.34 0.34 0.34 0.34 0.33 0.31 0.30 0.28 0.26 0.23 0.21 0.19 0.17 0.15 0.13 0.13 0.14 0.15 0.15 0.15 0.15 0.15 0.15 0.15 0.15 0.15 0.14 0.14 0.14 0.13 0.13 0.13 0.12 0.12 0.11 0.11
0.39 0.38 0.38 0.37 0.35 0.35 0.35 0.35 0.35 0.35 0.34 0.34 0.33 0.29 0.27 0.25 0.21 0.19 0.18 0.16 0.14 0.13 0.12 0.12 0.13 0.12 0.13 0.14 0.14 0.14 0.15 0.14 0.14 0.14 0.14 0.14 0.13 0.13 0.13 0.12 0.12 0.12 0.12 0.11
0.42 0.40 0.40 0.39 0.39 0.37 0.36 0.35 0.35 0.36 0.36 0.34 0.31 0.29 0.26 0.23 0.21 0.18 0.15 0.13 0.12 0.11 0.12 0.11 0.12 0.13 0.13 0.14 0.14 0.14 0.14 0.14 0.14 0.13 0.13 0.13 0.13 0.13 0.12 0.12 0.12 0.12 0.12 0.11
0.40 0.40 0.40 0.39 0.39 0.37 0.36 0.37 0.36 0.35 0.34 0.32 0.28 0.24 0.21 0.18 0.16 0.14 0.13 0.12 0.12 0.12 0.13 0.12 0.12 0.13 0.13 0.13 0.13 0.14 0.14 0.13 0.13 0.12 0.12 0.12 0.12 0.12 0.12 0.12 0.12 0.12 0.12 0.11
0.35 0.35 0.35 0.34 0.33 0.33 0.33 0.33 0.32 0.31 0.29 0.24 0.20 0.17 0.15 0.13 0.13 0.13 0.12 0.11 0.13 0.14 0.14 0.13 0.13 0.12 0.13 0.14 0.13 0.14 0.13 0.13 0.12 0.11 0.11 0.11 0.10 0.10 0.10 0.11 0.11 0.11 0.11 0.11
0.32 0.31 0.31 0.30 0.30 0.29 0.30 0.30 0.29 0.24 0.20 0.18 0.16 0.14 0.12 0.12 0.13 0.13 0.14 0.13 0.14 0.14 0.14 0.13 0.13 0.13 0.13 0.14 0.14 0.14 0.13 0.12 0.11 0.11 0.11 0.10 0.10 0.10 0.10 0.09 0.09 0.10 0.10 0.11
0.31 0.31 0.30 0.30 0.29 0.28 0.26 0.23 0.20 0.20 0.18 0.16 0.13 0.13 0.14 0.15 0.15 0.14 0.13 0.15 0.15 0.15 0.14 0.14 0.14 0.14 0.14 0.15 0.14 0.13 0.13 0.12 0.12 0.11 0.11 0.11 0.10 0.10 0.10 0.09 0.09 0.09 0.09 0.10
0.31 0.31 0.30 0.29 0.27 0.24 0.21 0.20 0.21 0.20 0.18 0.16 0.15 0.16 0.16 0.16 0.16 0.17 0.17 0.16 0.15 0.15 0.15 0.15 0.15 0.16 0.16 0.15 0.14 0.13 0.13 0.13 0.12 0.12 0.12 0.11 0.11 0.11 0.10 0.10 0.10 0.10 0.10 0.10
0.29 0.28 0.27 0.24 0.22 0.21 0.21 0.22 0.22 0.20 0.18 0.16 0.16 0.16 0.16 0.17 0.16 0.17 0.17 0.17 0.16 0.16 0.16 0.16 0.17 0.16 0.15 0.13 0.13 0.12 0.12 0.12 0.12 0.11 0.11 0.11 0.11 0.11 0.11 0.12 0.11 0.11 0.11 0.11
0.28 0.26 0.24 0.23 0.22 0.24 0.25 0.24 0.23 0.22 0.19 0.16 0.17 0.16 0.16 0.16 0.16 0.16 0.17 0.16 0.16 0.16 0.17 0.16 0.14 0.13 0.13 0.12 0.11 0.11 0.11 0.10 0.10 0.11 0.11 0.11 0.11 0.11 0.11 0.11 0.11 0.12 0.12 0.12
0.28 0.26 0.26 0.26 0.27 0.27 0.26 0.26 0.23 0.20 0.17 0.15 0.13 0.14 0.15 0.16 0.16 0.16 0.15 0.15 0.16 0.15 0.14 0.13 0.13 0.12 0.11 0.11 0.10 0.10 0.10 0.10 0.10 0.10 0.10 0.10 0.10 0.10 0.11 0.11 0.11 0.11 0.12 0.12